{"data":{"norad_id":43864,"epoch":"2026-05-25T04:02:30.547104Z","epoch_age_seconds":74166,"freshness":"FRESH","line1":"1 43864U 18105A   26145.16840911  .00000024  00000+0  00000+0 0  9992","line2":"2 43864   0.0471 260.4435 0002776 136.8429 328.8538  1.00272665 27216","mean_motion":1.00272665,"eccentricity":0.0002776,"inclination_deg":0.0471,"raan_deg":260.4435,"arg_perigee_deg":136.8429,"mean_anomaly_deg":328.8538,"bstar":0,"rev_number":2721,"period_min":1436.0843007414,"perigee_km":35774.64340594,"apogee_km":35798.05312816,"semimajor_km":42164.48526705,"source":"CELESTRAK","updated_at":"2026-05-25T13:38:14.059789Z"}}